| time (UTC) | temp C | wind direction | speed KPH | gust KPH | rain 1hr cm | rain 24hr cm | rain mn cm | humidity % | barometer mb |
| 20260508094731 | 10 | 60 | 6.4 | 9.7 | 0.00 | 0.00 | 0.00 | 40 | 1026.6 |
| 20260508092732 | 9 | 64 | 9.7 | 12.9 | 0.00 | 0.00 | 0.00 | 40 | 1026.5 |
| 20260508090731 | 9 | 75 | 8.0 | 11.3 | 0.00 | 0.00 | 0.00 | 43 | 1026.5 |
| 20260508084731 | 8 | 81 | 8.0 | 9.7 | 0.00 | 0.00 | 0.00 | 57 | 1026.7 |
| 20260508082731 | 8 | 93 | 6.4 | 8.0 | 0.00 | 0.00 | 0.00 | 58 | 1026.7 |
| 20260508080732 | 7 | 100 | 4.8 | 6.4 | 0.00 | 0.00 | 0.00 | 56 | 1026.6 |
| 20260508074731 | 7 | 39 | 6.4 | 6.4 | 0.00 | 0.00 | 0.00 | 55 | 1026.5 |
| 20260508072731 | 7 | 85 | 8.0 | 8.0 | 0.00 | 0.00 | 0.00 | 64 | 1026.4 |
| 20260508070731 | 6 | 27 | 9.7 | 12.9 | 0.00 | 0.00 | 0.00 | 66 | 1026.2 |
| 20260508064731 | 6 | 15 | 11.3 | 14.5 | 0.00 | 0.00 | 0.00 | 64 | 1026.0 |
| 20260508062730 | 5 | 10 | 11.3 | 16.1 | 0.00 | 0.00 | 0.00 | 66 | 1025.8 |
| 20260508060731 | 5 | 25 | 9.7 | 11.3 | 0.00 | 0.00 | 0.00 | 69 | 1025.7 |
| 20260508054731 | 5 | 5 | 12.9 | 16.1 | 0.00 | 0.00 | 0.00 | 68 | 1025.5 |
| 20260508052731 | 5 | 356 | 12.9 | 16.1 | 0.00 | 0.00 | 0.00 | 65 | 1025.2 |
| 20260508050731 | 4 | 351 | 11.3 | 14.5 | 0.00 | 0.00 | 0.00 | 61 | 1025.1 |
| 20260508044732 | 4 | 338 | 11.3 | 14.5 | 0.00 | 0.00 | 0.00 | 66 | 1024.9 |
| 20260508042730 | 4 | 332 | 9.7 | 12.9 | 0.00 | 0.00 | 0.00 | 67 | 1024.8 |
| 20260508040730 | 4 | 318 | 6.4 | 8.0 | 0.00 | 0.00 | 0.00 | 65 | 1024.5 |
| 20260508034730 | 3 | 311 | 4.8 | 9.7 | 0.00 | 0.00 | 0.00 | 64 | 1024.4 |
| 20260508032731 | 3 | 305 | 4.8 | 8.0 | 0.00 | 0.00 | 0.00 | 67 | 1024.2 |
| 20260508030731 | 3 | 290 | 3.2 | 6.4 | 0.00 | 0.00 | 0.00 | 69 | 1024.1 |
| 20260508024730 | 3 | 261 | 8.0 | 9.7 | 0.00 | 0.00 | 0.00 | 67 | 1023.8 |
| 20260508022729 | 3 | 315 | 4.8 | 8.0 | 0.00 | 0.00 | 0.00 | 68 | 1023.5 |
| 20260508020730 | 3 | 301 | 9.7 | 12.9 | 0.00 | 0.00 | 0.00 | 66 | 1023.4 |
| 20260508014730 | 3 | 314 | 6.4 | 9.7 | 0.00 | 0.00 | 0.00 | 69 | 1023.2 |
| 20260508012730 | 3 | 326 | 8.0 | 9.7 | 0.00 | 0.00 | 0.00 | 65 | 1023.0 |
| 20260508010730 | 3 | 315 | 9.7 | 12.9 | 0.00 | 0.00 | 0.00 | 63 | 1022.7 |
| 20260508004730 | 3 | 317 | 6.4 | 9.7 | 0.00 | 0.00 | 0.00 | 61 | 1022.6 |
| 20260508002730 | 4 | 318 | 8.0 | 11.3 | 0.00 | 0.00 | 0.00 | 62 | 1022.4 |
| 20260508000731 | 4 | 326 | 11.3 | 14.5 | 0.00 | 0.00 | 0.00 | 65 | 1022.2 |
| 20260507234730 | 4 | 332 | 12.9 | 14.5 | 0.00 | 0.00 | 0.00 | 63 | 1022.1 |
| 20260507232730 | 4 | 312 | 12.9 | 16.1 | 0.00 | 0.00 | 0.00 | 60 | 1021.8 |
| 20260507230730 | 5 | 307 | 14.5 | 16.1 | 0.00 | 0.00 | 0.00 | 57 | 1021.6 |
| 20260507224729 | 5 | 309 | 12.9 | 17.7 | 0.00 | 0.00 | 0.00 | 55 | 1021.4 |
| 20260507222730 | 5 | 312 | 8.0 | 11.3 | 0.00 | 0.00 | 0.00 | 52 | 1021.2 |
| 20260507220729 | 5 | 320 | 11.3 | 14.5 | 0.00 | 0.00 | 0.00 | 52 | 1021.0 |
| 20260507214729 | 5 | 318 | 14.5 | 17.7 | 0.00 | 0.00 | 0.00 | 52 | 1020.7 |
| 20260507212729 | 5 | 317 | 17.7 | 20.9 | 0.00 | 0.00 | 0.00 | 51 | 1020.3 |
| 20260507210729 | 6 | 316 | 17.7 | 20.9 | 0.00 | 0.00 | 0.00 | 53 | 1020.0 |
| 20260507204730 | 6 | 311 | 17.7 | 24.1 | 0.00 | 0.00 | 0.00 | 48 | 1019.8 |
| 20260507202729 | 6 | 301 | 17.7 | 22.5 | 0.00 | 0.00 | 0.00 | 43 | 1019.4 |
| 20260507200730 | 7 | 300 | 17.7 | 24.1 | 0.00 | 0.00 | 0.00 | 43 | 1019.0 |
| 20260507194729 | 7 | 299 | 16.1 | 20.9 | 0.00 | 0.00 | 0.00 | 40 | 1018.7 |
| 20260507192729 | 7 | 300 | 17.7 | 22.5 | 0.00 | 0.00 | 0.00 | 38 | 1018.5 |
| 20260507190728 | 8 | 302 | 19.3 | 25.7 | 0.00 | 0.00 | 0.00 | 39 | 1018.2 |
| 20260507184729 | 8 | 300 | 17.7 | 20.9 | 0.00 | 0.00 | 0.00 | 44 | 1018.0 |
| 20260507182728 | 8 | 295 | 17.7 | 22.5 | 0.00 | 0.00 | 0.00 | 43 | 1017.8 |
| 20260507180728 | 8 | 300 | 22.5 | 29.0 | 0.00 | 0.00 | 0.00 | 41 | 1017.6 |
| 20260507174728 | 9 | 303 | 20.9 | 29.0 | 0.00 | 0.00 | 0.00 | 41 | 1017.4 |
| 20260507172728 | 9 | 309 | 20.9 | 29.0 | 0.00 | 0.00 | 0.00 | 42 | 1017.2 |
| 20260507170728 | 10 | 302 | 22.5 | 30.6 | 0.00 | 0.00 | 0.00 | 35 | 1017.0 |
| 20260507164728 | 10 | 279 | 22.5 | 33.8 | 0.00 | 0.00 | 0.00 | 32 | 1016.9 |
| 20260507162728 | 10 | 271 | 22.5 | 32.2 | 0.00 | 0.00 | 0.00 | 36 | 1016.7 |
| 20260507160728 | 10 | 286 | 25.7 | 33.8 | 0.00 | 0.00 | 0.00 | 32 | 1016.5 |
| 20260507154728 | 10 | 282 | 22.5 | 30.6 | 0.00 | 0.00 | 0.00 | 36 | 1016.3 |
| 20260507152727 | 10 | 288 | 24.1 | 32.2 | 0.00 | 0.00 | 0.00 | 29 | 1016.3 |
| 20260507150729 | 10 | 296 | 22.5 | 30.6 | 0.00 | 0.00 | 0.00 | 32 | 1016.4 |
| 20260507144728 | 10 | 295 | 24.1 | 32.2 | 0.00 | 0.00 | 0.00 | 30 | 1016.2 |
| 20260507142729 | 10 | 315 | 22.5 | 33.8 | 0.00 | 0.00 | 0.00 | 29 | 1016.1 |
| 20260507140727 | 10 | 304 | 22.5 | 30.6 | 0.00 | 0.00 | 0.00 | 33 | 1016.0 |
| 20260507134728 | 10 | 353 | 8.0 | 12.9 | 0.00 | 0.00 | 0.00 | 32 | 1015.9 |
| 20260507132727 | 10 | 344 | 8.0 | 11.3 | 0.00 | 0.00 | 0.00 | 24 | 1015.8 |
| 20260507130728 | 10 | 36 | 9.7 | 14.5 | 0.00 | 0.00 | 0.00 | 35 | 1015.8 |
| 20260507124727 | 10 | 92 | 8.0 | 16.1 | 0.00 | 0.00 | 0.00 | 36 | 1015.8 |
| 20260507122727 | 11 | 32 | 11.3 | 16.1 | 0.00 | 0.00 | 0.00 | 26 | 1015.8 |
| 20260507120728 | 10 | 5 | 8.0 | 16.1 | 0.00 | 0.00 | 0.00 | 25 | 1015.8 |
| 20260507114728 | 10 | 205 | 6.4 | 11.3 | 0.00 | 0.00 | 0.00 | 20 | 1015.8 |
| 20260507112726 | 10 | 219 | 3.2 | 8.0 | 0.00 | 0.00 | 0.00 | 26 | 1015.9 |
| 20260507110726 | 10 | 213 | 3.2 | 12.9 | 0.00 | 0.00 | 0.00 | 17 | 1016.0 |
| 20260507104726 | 10 | 105 | 6.4 | 6.4 | 0.00 | 0.00 | 0.00 | 26 | 1016.0 |
| 20260507102727 | 9 | 162 | 4.8 | 8.0 | 0.00 | 0.00 | 0.00 | 29 | 1016.0 |
| 20260507100726 | 9 | 234 | 3.2 | 4.8 | 0.00 | 0.00 | 0.00 | 22 | 1016.1 |